GW0819 Weather Reports


Display with metric or nautical units.
time (UTC)temp
F
wind
direction
speed
MPH
gust
MPH
rain 1hr
in
rain 24hr
in
rain mn
in
humidity
%
barometer
mb
20260902210939 94 211 14.0 17.0 0.00 0.00 0.00 28 1013.1
20260902210434 96 170 11.0 15.0 0.00 0.00 0.00 27 1012.9
20260902205932 95 187 7.0 11.0 0.00 0.00 0.00 28 1013.1
20260902205428 93 174 9.0 14.0 0.00 0.00 0.00 28 1013.2
20260902204924 93 180 11.0 19.0 0.00 0.00 0.00 29 1013.3
20260902204423 95 225 8.0 18.0 0.00 0.00 0.00 28 1013.7
20260902203919 92 256 6.0 14.0 0.00 0.00 0.00 29 1013.6
20260902203414 95 184 2.0 3.0 0.00 0.00 0.00 29 1013.8
20260902202913 91 249 4.0 11.0 0.00 0.00 0.00 31 1013.9
20260902202409 91 197 7.0 10.0 0.00 0.00 0.00 31 1013.9
20260902201906 92 178 7.0 9.0 0.00 0.00 0.00 31 1013.9
20260902201405 93 170 5.0 12.0 0.00 0.00 0.00 30 1014.0
20260902200900 92 200 12.0 17.0 0.00 0.00 0.00 31 1014.2
20260902200355 91 217 9.0 14.0 0.00 0.00 0.00 31 1014.0
20260902195850 91 231 13.0 15.0 0.00 0.00 0.00 31 1014.3
20260902195349 90 232 11.0 19.0 0.00 0.00 0.00 33 1014.3
20260902194845 91 292 5.0 16.0 0.00 0.00 0.00 32 1014.6
20260902194339 93 213 14.0 20.0 0.00 0.00 0.00 31 1014.3
20260902193834 93 206 14.0 21.0 0.00 0.00 0.00 31 1014.5
20260902193330 93 203 19.0 20.0 0.00 0.00 0.00 30 1014.6
20260902192829 92 239 14.0 20.0 0.00 0.00 0.00 31 1014.8
20260902192328 90 184 5.0 6.0 0.00 0.00 0.00 33 1014.7
20260902191822 90 247 9.0 15.0 0.00 0.00 0.00 33 1015.0
20260902191317 91 232 13.0 19.0 0.00 0.00 0.00 32 1015.0
20260902190813 93 195 9.0 9.0 0.00 0.00 0.00 31 1014.9
20260902190312 91 231 5.0 14.0 0.00 0.00 0.00 33 1014.9
20260902185808 90 233 5.0 6.0 0.00 0.00 0.00 33 1015.3
20260902185306 91 233 12.0 16.0 0.00 0.00 0.00 32 1015.3
20260902184759 91 260 12.0 16.0 0.00 0.00 0.00 32 1015.4
20260902184254 90 229 9.0 11.0 0.00 0.00 0.00 34 1015.5
20260902183750 92 221 13.0 15.0 0.00 0.00 0.00 33 1015.7
20260902183246 89 197 10.0 16.0 0.00 0.00 0.00 34 1015.9
20260902182742 89 249 11.0 16.0 0.00 0.00 0.00 35 1015.8
20260902182238 89 258 12.0 14.0 0.00 0.00 0.00 35 1015.9
20260902181735 90 236 15.0 22.0 0.00 0.00 0.00 35 1015.9
20260902181234 89 303 2.0 9.0 0.00 0.00 0.00 35 1016.2
20260902180729 89 211 12.0 19.0 0.00 0.00 0.00 35 1016.2
20260902180224 90 273 8.0 9.0 0.00 0.00 0.00 34 1016.4
20260902175719 88 255 7.0 12.0 0.00 0.00 0.00 33 1016.2
20260902175215 89 248 14.0 19.0 0.00 0.00 0.00 34 1016.5
20260902174711 88 229 10.0 13.0 0.00 0.00 0.00 37 1016.4
20260902174207 88 216 13.0 18.0 0.00 0.00 0.00 36 1016.4
20260902173702 88 228 12.0 16.0 0.00 0.00 0.00 37 1016.5
20260902173157 87 232 8.0 17.0 0.00 0.00 0.00 38 1016.6
20260902172657 89 230 15.0 17.0 0.00 0.00 0.00 36 1016.7
20260902172156 88 216 14.0 18.0 0.00 0.00 0.00 38 1016.8
20260902171651 87 255 15.0 18.0 0.00 0.00 0.00 39 1016.7
20260902171147 87 220 14.0 21.0 0.00 0.00 0.00 39 1016.6
20260902170643 87 209 14.0 17.0 0.00 0.00 0.00 40 1016.7
20260902170138 85 225 17.0 17.0 0.00 0.00 0.00 42 1016.7
20260902165633 86 207 8.0 17.0 0.00 0.00 0.00 42 1017.2
20260902165133 85 201 9.0 17.0 0.00 0.00 0.00 43 1017.2
20260902164628 85 233 11.0 18.0 0.00 0.00 0.00 42 1017.1
20260902164127 85 232 13.0 14.0 0.00 0.00 0.00 44 1017.1
20260902163622 85 240 21.0 21.0 0.00 0.00 0.00 44 1017.3
20260902163121 83 235 13.0 23.0 0.00 0.00 0.00 46 1017.2
20260902162620 83 218 9.0 18.0 0.00 0.00 0.00 45 1017.2
20260902162115 83 215 11.0 18.0 0.00 0.00 0.00 46 1017.1
20260902161610 84 217 13.0 19.0 0.00 0.00 0.00 45 1017.1
20260902161106 83 228 17.0 21.0 0.00 0.00 0.00 46 1017.1
20260902160603 82 224 14.0 20.0 0.00 0.00 0.00 46 1017.1
20260902160057 83 228 13.0 17.0 0.00 0.00 0.00 47 1017.0
20260902155555 82 226 15.0 18.0 0.00 0.00 0.00 47 1017.1
20260902155054 82 218 12.0 15.0 0.00 0.00 0.00 49 1017.0
20260902154549 81 215 11.0 18.0 0.00 0.00 0.00 50 1017.2
20260902154044 81 223 17.0 17.0 0.00 0.00 0.00 50 1017.0
20260902153543 80 227 11.0 19.0 0.00 0.00 0.00 50 1017.1
20260902153039 80 228 13.0 17.0 0.00 0.00 0.00 51 1017.1
20260902152535 80 231 12.0 15.0 0.00 0.00 0.00 51 1017.1
20260902152030 79 206 13.0 16.0 0.00 0.00 0.00 52 1017.0
20260902151526 80 237 14.0 17.0 0.00 0.00 0.00 51 1017.1
20260902151025 80 232 18.0 21.0 0.00 0.00 0.00 51 1016.7
20260902150521 79 231 16.0 20.0 0.00 0.00 0.00 53 1017.1
20260902150016 79 214 14.0 16.0 0.00 0.00 0.00 52 1016.7
20260902145511 78 222 14.0 17.0 0.00 0.00 0.00 54 1017.0
20260902145010 78 220 16.0 19.0 0.00 0.00 0.00 54 1016.8
20260902144507 78 237 15.0 17.0 0.00 0.00 0.00 54 1017.2
20260902144002 77 229 11.0 15.0 0.00 0.00 0.00 56 1016.7
20260902143457 77 236 17.0 17.0 0.00 0.00 0.00 56 1017.0
20260902142953 77 219 12.0 13.0 0.00 0.00 0.00 56 1016.8
20260902142448 76 252 11.0 11.0 0.00 0.00 0.00 57 1017.1
20260902141949 76 246 10.0 12.0 0.00 0.00 0.00 59 1017.2
20260902141444 75 228 7.0 10.0 0.00 0.00 0.00 59 1016.8
20260902140944 75 225 7.0 9.0 0.00 0.00 0.00 60 1016.7
20260902140439 74 227 8.0 10.0 0.00 0.00 0.00 60 1016.8
20260902135938 74 184 3.0 6.0 0.00 0.00 0.00 61 1017.0
20260902135435 73 228 5.0 7.0 0.00 0.00 0.00 63 1017.0
20260902134933 72 252 5.0 5.0 0.00 0.00 0.00 64 1016.7
20260902134430 72 269 5.0 7.0 0.00 0.00 0.00 65 1017.0
20260902133924 72 264 5.0 5.0 0.00 0.00 0.00 66 1017.0
20260902133419 71 281 4.0 6.0 0.00 0.00 0.00 67 1017.0
20260902132914 71 271 4.0 5.0 0.00 0.00 0.00 68 1016.8
20260902132409 71 277 3.0 5.0 0.00 0.00 0.00 68 1017.0
20260902131904 70 244 4.0 5.0 0.00 0.00 0.00 70 1017.1
20260902131401 69 272 3.0 4.0 0.00 0.00 0.00 71 1016.8
20260902130900 69 285 2.0 3.0 0.00 0.00 0.00 71 1016.8
20260902130356 69 282 3.0 3.0 0.00 0.00 0.00 70 1016.6
20260902125851 69 266 4.0 5.0 0.00 0.00 0.00 70 1016.5
20260902125347 70 275 4.0 5.0 0.00 0.00 0.00 69 1016.3
20260902124843 69 264 4.0 4.0 0.00 0.00 0.00 70 1016.5
20260902124339 69 250 3.0 4.0 0.00 0.00 0.00 70 1016.3
20260902123833 69 245 3.0 4.0 0.00 0.00 0.00 70 1016.3
20260902123330 69 245 4.0 4.0 0.00 0.00 0.00 70 1016.2
20260902122828 69 224 4.0 5.0 0.00 0.00 0.00 70 1016.0
20260902122325 69 218 5.0 5.0 0.00 0.00 0.00 70 1016.2
20260902121824 69 202 3.0 5.0 0.00 0.00 0.00 69 1015.8
20260902121319 69 198 5.0 5.0 0.00 0.00 0.00 69 1016.2
20260902120814 69 195 4.0 4.0 0.00 0.00 0.00 70 1015.8
20260902120311 69 178 4.0 5.0 0.00 0.00 0.00 70 1015.8
20260902115805 69 181 3.0 4.0 0.00 0.00 0.00 70 1015.7
20260902115306 69 200 3.0 3.0 0.00 0.00 0.00 70 1015.9
20260902114758 69 182 2.0 2.0 0.00 0.00 0.00 70 1015.6
20260902114254 68 170 3.0 3.0 0.00 0.00 0.00 69 1015.7
20260902113748 69 191 3.0 4.0 0.00 0.00 0.00 69 1015.7
20260902113243 69 203 3.0 4.0 0.00 0.00 0.00 69 1015.7
20260902112742 69 227 5.0 5.0 0.00 0.00 0.00 68 1015.8
20260902112240 69 227 4.0 4.0 0.00 0.00 0.00 68 1015.9
20260902111735 69 222 3.0 5.0 0.00 0.00 0.00 67 1015.7
20260902111231 69 229 4.0 4.0 0.00 0.00 0.00 67 1015.7
20260902110727 69 234 4.0 5.0 0.00 0.00 0.00 67 1015.8
20260902110222 70 216 3.0 4.0 0.00 0.00 0.00 66 1016.0
20260902105722 69 217 4.0 4.0 0.00 0.00 0.00 66 1015.7
20260902105217 69 210 5.0 5.0 0.00 0.00 0.00 66 1015.7
20260902104713 69 219 4.0 6.0 0.00 0.00 0.00 65 1015.7
20260902104209 70 221 5.0 6.0 0.00 0.00 0.00 65 1015.9
20260902103708 70 231 5.0 5.0 0.00 0.00 0.00 64 1015.7
20260902103202 71 227 5.0 5.0 0.00 0.00 0.00 63 1015.8
20260902102658 71 223 4.0 4.0 0.00 0.00 0.00 63 1015.7
20260902102156 71 215 4.0 4.0 0.00 0.00 0.00 63 1015.9
20260902101651 71 220 2.0 3.0 0.00 0.00 0.00 62 1015.9
20260902101150 71 206 4.0 4.0 0.00 0.00 0.00 62 1015.9
20260902100645 71 212 4.0 5.0 0.00 0.00 0.00 61 1015.6
20260902100140 71 203 4.0 6.0 0.00 0.00 0.00 61 1015.7
20260902095639 71 209 4.0 6.0 0.00 0.00 0.00 60 1015.7
20260902095138 71 215 4.0 6.0 0.00 0.00 0.00 59 1015.7
20260902094633 72 203 5.0 6.0 0.00 0.00 0.00 59 1015.6
20260902094130 72 205 6.0 6.0 0.00 0.00 0.00 59 1015.8
20260902093629 71 213 4.0 4.0 0.00 0.00 0.00 59 1015.8
20260902093124 72 203 4.0 5.0 0.00 0.00 0.00 58 1015.9
20260902092619 71 212 4.0 5.0 0.00 0.00 0.00 58 1016.2
20260902092114 71 201 4.0 6.0 0.00 0.00 0.00 57 1015.9
20260902091609 72 182 5.0 6.0 0.00 0.00 0.00 57 1015.8
20260902091105 72 193 5.0 8.0 0.00 0.00 0.00 56 1016.0
20260902090601 73 189 7.0 9.0 0.00 0.00 0.00 56 1015.9
20260902090059 73 192 7.0 7.0 0.00 0.00 0.00 55 1015.6
20260902085554 73 183 6.0 7.0 0.00 0.00 0.00 55 1015.6
20260902085049 74 170 7.0 7.0 0.00 0.00 0.00 54 1015.8
20260902084546 74 175 7.0 8.0 0.00 0.00 0.00 54 1015.8
20260902084041 74 158 6.0 7.0 0.00 0.00 0.00 53 1015.7
20260902083536 74 175 5.0 10.0 0.00 0.00 0.00 52 1015.9
20260902083036 74 169 6.0 7.0 0.00 0.00 0.00 52 1015.9
20260902082532 74 176 6.0 7.0 0.00 0.00 0.00 52 1015.9
20260902082028 74 176 8.0 9.0 0.00 0.00 0.00 51 1016.0
20260902081525 75 184 7.0 11.0 0.00 0.00 0.00 50 1015.9
20260902081024 75 194 7.0 11.0 0.00 0.00 0.00 50 1015.9
20260902080519 75 180 7.0 12.0 0.00 0.00 0.00 50 1015.9
20260902080016 76 176 7.0 11.0 0.00 0.00 0.00 49 1016.0
20260902075505 76 175 8.0 12.0 0.00 0.00 0.00 49 1016.0
20260902075001 76 180 8.0 11.0 0.00 0.00 0.00 48 1016.3
20260902074456 76 191 9.0 12.0 0.00 0.00 0.00 48 1016.3
20260902073955 76 171 7.0 11.0 0.00 0.00 0.00 48 1016.3
20260902073452 76 190 9.0 11.0 0.00 0.00 0.00 48 1016.4
20260902072948 76 190 10.0 12.0 0.00 0.00 0.00 47 1016.5
20260902072443 77 183 14.0 14.0 0.00 0.00 0.00 47 1016.3
20260902071940 77 166 9.0 14.0 0.00 0.00 0.00 47 1016.3
20260902071439 77 165 17.0 18.0 0.00 0.00 0.00 46 1016.2
20260902070936 77 168 10.0 16.0 0.00 0.00 0.00 46 1016.3
20260902070431 78 161 10.0 13.0 0.00 0.00 0.00 46 1016.3
20260902065930 77 161 8.0 12.0 0.00 0.00 0.00 46 1016.2
20260902065425 78 176 9.0 11.0 0.00 0.00 0.00 46 1016.4
20260902064921 78 161 10.0 11.0 0.00 0.00 0.00 46 1016.0
20260902064416 78 163 8.0 11.0 0.00 0.00 0.00 46 1016.3
20260902063911 78 159 8.0 10.0 0.00 0.00 0.00 47 1016.4
20260902063411 77 162 8.0 11.0 0.00 0.00 0.00 47 1016.2
20260902062906 77 166 6.0 9.0 0.00 0.00 0.00 48 1016.3
20260902062405 77 166 6.0 7.0 0.00 0.00 0.00 48 1016.3
20260902061905 77 169 5.0 6.0 0.00 0.00 0.00 48 1016.4
20260902061400 78 168 5.0 7.0 0.00 0.00 0.00 48 1016.2
20260902060856 78 171 6.0 8.0 0.00 0.00 0.00 47 1016.2
20260902060352 77 161 5.0 5.0 0.00 0.00 0.00 49 1016.4
20260902055848 77 159 5.0 5.0 0.00 0.00 0.00 50 1016.3
20260902055344 76 156 5.0 5.0 0.00 0.00 0.00 51 1016.5
20260902054839 76 144 5.0 6.0 0.00 0.00 0.00 52 1016.4
20260902054334 76 137 5.0 6.0 0.00 0.00 0.00 52 1016.4
20260902053830 76 129 6.0 7.0 0.00 0.00 0.00 52 1016.2
20260902053325 76 126 5.0 6.0 0.00 0.00 0.00 52 1016.4
20260902052824 75 121 5.0 5.0 0.00 0.00 0.00 53 1016.3
20260902052320 75 121 5.0 5.0 0.00 0.00 0.00 54 1016.4
20260902051814 74 121 6.0 7.0 0.00 0.00 0.00 55 1016.6
20260902051308 74 113 6.0 6.0 0.00 0.00 0.00 55 1016.4
20260902050803 74 115 5.0 5.0 0.00 0.00 0.00 55 1016.4
20260902050303 74 119 4.0 5.0 0.00 0.00 0.00 55 1016.4
20260902045757 74 110 5.0 5.0 0.00 0.00 0.00 54 1016.3
20260902045253 75 110 4.0 5.0 0.00 0.00 0.00 54 1016.5
20260902044749 75 108 5.0 6.0 0.00 0.00 0.00 53 1016.5
20260902044244 75 104 6.0 7.0 0.00 0.00 0.00 53 1016.5
20260902043739 75 108 5.0 7.0 0.00 0.00 0.00 53 1016.6
20260902043235 76 100 5.0 7.0 0.00 0.00 0.00 53 1016.3
20260902042734 75 99 5.0 7.0 0.00 0.00 0.00 53 1016.7
20260902042229 76 121 5.0 5.0 0.00 0.00 0.00 53 1016.4
20260902041724 76 78 3.0 5.0 0.00 0.00 0.00 54 1016.4
20260902041218 76 89 3.0 4.0 0.00 0.00 0.00 53 1016.4
20260902040718 77 73 3.0 3.0 0.00 0.00 0.00 53 1016.4
20260902040214 77 76 3.0 5.0 0.00 0.00 0.00 53 1016.6
20260902035712 76 89 2.0 3.0 0.00 0.00 0.00 54 1016.5
20260902035208 76 147 3.0 5.0 0.00 0.00 0.00 54 1016.4
20260902034707 76 67 2.0 2.0 0.00 0.00 0.00 54 1016.3
20260902034206 76 100 3.0 5.0 0.00 0.00 0.00 54 1016.4
20260902033705 76 109 3.0 3.0 0.00 0.00 0.00 54 1016.2
20260902033201 76 87 3.0 5.0 0.00 0.00 0.00 55 1016.0
20260902032659 77 106 4.0 4.0 0.00 0.00 0.00 54 1016.0
20260902032154 76 120 4.0 5.0 0.00 0.00 0.00 55 1016.0
20260902031648 76 117 0.0 1.0 0.00 0.00 0.00 55 1016.0
20260902031144 76 96 2.0 2.0 0.00 0.00 0.00 56 1015.9
20260902030640 76 72 4.0 5.0 0.00 0.00 0.00 56 1016.0
20260902030139 76 132 1.0 4.0 0.00 0.00 0.00 56 1016.0
20260902025638 76 89 0.0 1.0 0.00 0.00 0.00 56 1015.7
20260902025134 76 6 3.0 3.0 0.00 0.00 0.00 56 1015.8
20260902024629 76 208 2.0 3.0 0.00 0.00 0.00 57 1015.7
20260902024124 76 226 3.0 3.0 0.00 0.00 0.00 57 1015.7
20260902023620 76 271 1.0 3.0 0.00 0.00 0.00 56 1015.8
20260902023114 77 309 2.0 4.0 0.00 0.00 0.00 55 1015.4
20260902022614 77 338 3.0 4.0 0.00 0.00 0.00 56 1015.3
20260902022110 77 342 4.0 5.0 0.00 0.00 0.00 55 1015.4
20260902021605 77 349 4.0 8.0 0.00 0.00 0.00 56 1015.1
20260902021100 76 335 4.0 6.0 0.00 0.00 0.00 56 1015.1
20260902020556 76 341 4.0 6.0 0.00 0.00 0.00 56 1015.3
20260902020051 77 328 6.0 9.0 0.00 0.00 0.00 55 1015.0
20260902015547 77 323 8.0 9.0 0.00 0.00 0.00 55 1014.9
20260902015043 77 325 9.0 11.0 0.00 0.00 0.00 54 1014.9
20260902014539 77 334 6.0 11.0 0.00 0.00 0.00 55 1015.0
20260902014034 77 332 8.0 10.0 0.00 0.00 0.00 55 1015.0
20260902013533 77 315 10.0 14.0 0.00 0.00 0.00 55 1015.0
20260902013029 77 311 14.0 16.0 0.00 0.00 0.00 54 1015.0
20260902012524 78 314 19.0 22.0 0.00 0.00 0.00 54 1015.1
20260902012020 78 307 10.0 18.0 0.00 0.00 0.00 52 1014.6
20260902011515 78 288 13.0 18.0 0.00 0.00 0.00 51 1015.1
20260902011015 78 296 16.0 29.0 0.00 0.00 0.00 51 1014.8
20260902010514 79 290 24.0 28.0 0.00 0.00 0.00 50 1014.8
20260902010010 81 283 20.0 28.0 0.00 0.00 0.00 47 1015.0
20260902005508 88 197 6.0 10.0 0.00 0.00 0.00 31 1014.5
20260902005004 88 160 7.0 12.0 0.00 0.00 0.00 31 1014.2
20260902004504 88 168 11.0 12.0 0.00 0.00 0.00 31 1014.0
20260902003959 88 157 7.0 10.0 0.00 0.00 0.00 30 1014.1
20260902003454 88 170 10.0 14.0 0.00 0.00 0.00 30 1014.0
20260902002949 88 173 8.0 15.0 0.00 0.00 0.00 30 1014.2
20260902002445 89 142 12.0 17.0 0.00 0.00 0.00 30 1013.9
20260902001944 89 167 12.0 17.0 0.00 0.00 0.00 30 1013.9
20260902001439 89 184 9.0 16.0 0.00 0.00 0.00 30 1013.8
20260902000934 90 176 9.0 13.0 0.00 0.00 0.00 29 1013.8
20260902000429 90 177 9.0 15.0 0.00 0.00 0.00 29 1013.9
20260901235924 91 208 14.0 16.0 0.00 0.00 0.00 28 1013.8
20260901235419 90 127 15.0 19.0 0.00 0.00 0.00 29 1013.8
20260901234914 90 133 10.0 15.0 0.00 0.00 0.00 30 1013.6
20260901234408 90 162 7.0 11.0 0.00 0.00 0.00 29 1013.4
20260901233903 90 152 9.0 13.0 0.00 0.00 0.00 30 1013.8
20260901233358 90 141 14.0 17.0 0.00 0.00 0.00 29 1013.6
20260901232855 90 160 13.0 15.0 0.00 0.00 0.00 29 1013.6
20260901232355 91 170 14.0 20.0 0.00 0.00 0.00 28 1013.8
20260901231850 91 168 10.0 15.0 0.00 0.00 0.00 29 1013.8
20260901231347 91 161 14.0 18.0 0.00 0.00 0.00 28 1013.6
20260901230843 91 128 12.0 19.0 0.00 0.00 0.00 29 1013.6
20260901230342 91 121 9.0 14.0 0.00 0.00 0.00 29 1013.7
20260901225838 91 116 9.0 12.0 0.00 0.00 0.00 28 1013.7
20260901225337 91 143 7.0 14.0 0.00 0.00 0.00 29 1013.7
20260901224832 90 193 5.0 13.0 0.00 0.00 0.00 29 1013.8
20260901224329 91 151 17.0 19.0 0.00 0.00 0.00 28 1013.8
20260901223825 90 139 8.0 10.0 0.00 0.00 0.00 29 1013.9
20260901223320 90 169 8.0 14.0 0.00 0.00 0.00 28 1013.7
20260901222815 91 159 9.0 10.0 0.00 0.00 0.00 28 1013.7
20260901222312 91 164 5.0 13.0 0.00 0.00 0.00 28 1013.7
20260901221807 90 131 7.0 9.0 0.00 0.00 0.00 29 1013.7
20260901221303 90 220 10.0 17.0 0.00 0.00 0.00 28 1013.9
20260901220802 91 202 15.0 17.0 0.00 0.00 0.00 28 1013.8
20260901220256 91 167 2.0 23.0 0.00 0.00 0.00 28 1014.0
20260901215754 91 214 12.0 18.0 0.00 0.00 0.00 29 1014.0
20260901215254 91 174 8.0 18.0 0.00 0.00 0.00 29 1014.0
20260901214753 91 141 14.0 18.0 0.00 0.00 0.00 29 1014.0
20260901214252 91 167 5.0 14.0 0.00 0.00 0.00 29 1014.0
20260901213747 91 202 7.0 19.0 0.00 0.00 0.00 29 1014.1
20260901213247 90 133 17.0 18.0 0.00 0.00 0.00 30 1014.3
20260901212746 92 158 12.0 14.0 0.00 0.00 0.00 29 1014.2
20260901212243 92 151 10.0 15.0 0.00 0.00 0.00 28 1014.3
20260901211737 90 106 7.0 13.0 0.00 0.00 0.00 31 1014.5
20260901211234 89 139 5.0 18.0 0.00 0.00 0.00 31 1014.6